Regional Weather Roundup
Issued by NWS Little Rock, AR

Home | Current Version | Previous Version | Text Only | Print | Product List | Glossary Off
Versions: 1 2 3 4 5 6 7 8 9 10 11 12 13 14 15 16 17 18 19 20 21 22 23 24 25 26 27 28 29 30 31 32 33 34 35 36 37 38 39 40 41 42 43 44 45 46 47 48 49 50

000
ASUS44 KLZK 030305
RWRLZK

WEATHER ROUNDUP FOR ARKANSAS
NATIONAL WEATHER SERVICE LITTLE ROCK AR
900 PM CST MON MAR 02 2015

NOTE: "FAIR" INDICATES FEW OR NO CLOUDS BELOW 12,000 FEET WITH NO
SIGNIFICANT WEATHER AND/OR OBSTRUCTIONS TO VISIBILITY.

ARZ001-003-010-029-030400-
NORTHWEST ARKANSAS

CITY           SKY/WX    TMP DP  RH WIND       PRES   REMARKS
FAYETTEVILLE   CLOUDY    36  33  89 CALM      30.15F
FORT SMITH     CLOUDY    37  31  78 E9        30.22F
HARRISON       CLOUDY    34  24  67 SE13      30.18F WCI  25
BENTONVILLE    CLOUDY    36  28  75 SE12      30.14F
ROGERS         CLOUDY    35  29  78 SE10      30.14F WCI  27
SILOAM SPGS    CLOUDY    36  28  75 SE10      30.14F
HIGHFILL       CLOUDY    36  30  79 SE12      30.13F
SPRINGDALE     CLOUDY    36  30  80 E6        30.16F
$$

ARZ004-005-016-030400-
NORTH CENTRAL ARKANSAS

CITY           SKY/WX    TMP DP  RH WIND       PRES   REMARKS
BATESVILLE     CLOUDY    34  25  69 E5        30.29S WCI  30
FLIPPIN        CLOUDY    36  18  48 SE7       30.23F
MTN HOME       CLOUDY    34  19  54 SE7       30.22F WCI  28
$$

ARZ040-041-030400-
WEST CENTRAL ARKANSAS

CITY           SKY/WX    TMP DP  RH WIND       PRES   REMARKS
MENA           CLOUDY    37  36  93 E5        30.22S VSB 1
MOUNT IDA      CLOUDY    36  34  92 VRB3      30.21F FOG
$$

ARZ009-017-025-026-028-030400-
NORTHEAST ARKANSAS

CITY           SKY/WX    TMP DP  RH WIND       PRES   REMARKS
CORNING        CLOUDY    36  25  64 CALM      30.29F
JONESBORO      CLOUDY    34  25  69 NE3       30.28F
NEWPORT        CLOUDY    34  29  82 NW5       30.32F WCI  30
WALNUT RIDGE   CLOUDY    34  25  69 NE5       30.28F WCI  30
BLYTHEVILLE    CLOUDY    36  31  82 N3        30.28S
$$

ARZ022-023-033-042-044-030400-
CENTRAL ARKANSAS

CITY           SKY/WX    TMP DP  RH WIND       PRES   REMARKS
LITTLE ROCK    CLOUDY    35  31  85 E6        30.29F FOG     WCI  30
N LITTLE ROCK  CLOUDY    34  34 100 E7        30.29F WCI  27
JACKSONVILLE   CLOUDY    35  31  88 E2        30.27F
SEARCY         CLOUDY    34  31  88 NE5       30.32S WCI  30
HOT SPRINGS    CLOUDY    35  33  92 E6        30.27S FOG     WCI  30
RUSSELLVILLE   CLOUDY    38  30  73 VRB5      30.25F
CLINTON        CLOUDY    36  27  69 E3        30.28F
$$

ARZ036-030400-
EAST ARKANSAS

CITY           SKY/WX    TMP DP  RH WIND       PRES   REMARKS
WEST MEMPHIS   CLOUDY    37  34  89 NW3       30.26F
$$

ARZ050-053-066-070-073-030400-
SOUTHWEST ARKANSAS

CITY           SKY/WX    TMP DP  RH WIND       PRES   REMARKS
ARKADELPHIA    CLOUDY    36  36 100 E5        30.29F FOG
CAMDEN         CLOUDY    36  34  93 MISG      30.29S FOG
TEXARKANA      CLOUDY    36  36 100 E3        30.26F FOG
EL DORADO      CLOUDY    37  36  96 NE7       30.27F FOG
DE QUEEN       CLOUDY    38  36  92 SE6       30.24F FOG
$$

ARZ056-057-069-030400-
SOUTHEAST ARKANSAS

CITY           SKY/WX    TMP DP  RH WIND       PRES   REMARKS
PINE BLUFF     CLOUDY    35  34  96 NE5       30.29F FOG     WCI  31
STUTTGART      CLOUDY    36  32  87 NE7       30.30S
MONTICELLO     FOG       37  36  96 CALM      30.28R VSB 3/4

$$





USA.gov is the U.S. government's official web portal to all federal, state and local government web resources and services.